(44288) = 1998 QP85 = 2001 FH165

Discovered at Socorro on 1998-08-24 by LINEAR.

Orbit

Orbit type: Main Belt

Note: WebGL enabled browser required.

epoch2024-03-31.0
epoch JD2460400.5
perihelion date2019-07-31.38793
perihelion JD2458695.88793
argument of perihelion (°)161.27021
ascending node (°)212.42099
inclination (°)10.37750
eccentricity0.1085679
perihelion distance (AU)2.6537791
Tisserand w.r.t. Jupiter3.2
ΔV w.r.t. Earth (km/sec)10.7
semimajor axis (AU)2.9769840
mean anomaly (°)327.08804
mean daily motion (°/day)0.19188420
aphelion distance (AU)3.300
period (years)5.14
P-vector [x]0.96876940
P-vector [y]0.19821774
P-vector [z]0.14898183
Q-vector [x]-0.22838340
Q-vector [y]0.94727276
Q-vector [z]0.22475618
absolute magnitude14.48
phase slope0.15
uncertainty0
referenceMPEC 2024-E123
observations used1286
oppositions21
arc length (days)9127
first opposition used1998
last opposition used2023
residual rms (arc-secs)0.70
perturbers coarse indicatorM-v
perturbers precise indicator003Ek
first observation date used1998-08-19.0
last observation date used2023-08-15.0
computer nameMPCLINUX
JD of orbit computation2456966.772600
perihelion JD uncertainty (days)1.5108E-04
argument of perihelion uncertainty (°)4.2915E-05
ascending node uncertainty (°)3.0965E-05
inclination uncertainty (°)6.0103E-06
eccentricity uncertainty 5.0389E-08
perihelion distance uncertainty (AU)1.4799E-07
Minimum Orbit Intersection Distances (in AU)
for orbit epoch: 2460400.5, reference: E2024-E50
Mercury2.30868
Venus1.93375
Earth1.65763
Mars1.22866
Jupiter2.16144
Saturn6.13861
Uranus15.199
Neptune27.1278

Observations

1314 total observations over interval: 1998 08 19.38106 – 2023 08 15.095198
These data are available for download (format description).

Date (UT) J2000 RA J2000 Dec Magn Location Ref
1998 08 19.38106 23 07 27.00 +07 57 32.4 18.5   704 – Lincoln Laboratory ETS, New Mexico MPS 19000
1998 08 19.39325 23 07 26.68 +07 57 31.5 18.5   704 – Lincoln Laboratory ETS, New Mexico MPS 19000
1998 08 19.40594 23 07 26.08 +07 57 27.8 18.9   704 – Lincoln Laboratory ETS, New Mexico MPS 19000
1998 08 19.41873 23 07 25.78 +07 57 23.6 18.9   704 – Lincoln Laboratory ETS, New Mexico MPS 19000
1998 08 19.43102 23 07 25.15 +07 57 19.2 19.1   704 – Lincoln Laboratory ETS, New Mexico MPS 19000
1998 08 24.37370 23 04 28.12 +07 36 04.8 18.5   704 – Lincoln Laboratory ETS, New Mexico MPS 2084
1998 08 24.39012 23 04 27.49 +07 36 00.4 19.2   704 – Lincoln Laboratory ETS, New Mexico MPS 2084
1998 08 24.40641 23 04 26.81 +07 35 56.1 19.4   704 – Lincoln Laboratory ETS, New Mexico MPS 2084
1998 08 24.42271 23 04 26.38 +07 35 48.1 18.9   704 – Lincoln Laboratory ETS, New Mexico MPS 2084
1998 08 24.43899 23 04 25.55 +07 35 47.3 18.9   704 – Lincoln Laboratory ETS, New Mexico MPS 2084
1998 08 27.37674 23 02 32.09 +07 20 38.8 18.9   704 – Lincoln Laboratory ETS, New Mexico MPS 2084
1998 08 27.39431 23 02 31.41 +07 20 34.2 19.0   704 – Lincoln Laboratory ETS, New Mexico MPS 2084
1998 08 27.41180 23 02 30.55 +07 20 28.5 19.1   704 – Lincoln Laboratory ETS, New Mexico MPS 2084
1998 08 27.42922 23 02 29.94 +07 20 21.9 19.1   704 – Lincoln Laboratory ETS, New Mexico MPS 2084
1998 08 27.44674 23 02 29.15 +07 20 14.6 19.1   704 – Lincoln Laboratory ETS, New Mexico MPS 2084
1998 08 30.40674 23 00 30.18 +07 03 23.1 18.2 R 699 – Lowell Observatory-LONEOS MPS 2574
1998 08 30.43156 23 00 29.10 +07 03 13.8   699 – Lowell Observatory-LONEOS MPS 2574
1998 08 30.45569 23 00 28.12 +07 03 05.8   699 – Lowell Observatory-LONEOS MPS 2574
1998 09 16.18377 22 48 54.03 +05 02 29.2 18.1 R 699 – Lowell Observatory-LONEOS MPS 2263
1998 09 16.23346 22 48 52.02 +05 02 04.5   699 – Lowell Observatory-LONEOS MPS 2263
1998 09 16.25941 22 48 50.98 +05 01 53.4   699 – Lowell Observatory-LONEOS MPS 2263
1998 09 19.16181 22 46 58.65 +04 38 04.7 18.4   704 – Lincoln Laboratory ETS, New Mexico MPS 2574
1998 09 19.18263 22 46 57.82 +04 37 54.2 18.9   704 – Lincoln Laboratory ETS, New Mexico MPS 2574
1998 09 19.20344 22 46 56.98 +04 37 43.6 18.9   704 – Lincoln Laboratory ETS, New Mexico MPS 2574
1998 09 19.22423 22 46 56.22 +04 37 32.7 19.2   704 – Lincoln Laboratory ETS, New Mexico MPS 2574
1998 09 19.24518 22 46 55.40 +04 37 23.3 19.2   704 – Lincoln Laboratory ETS, New Mexico MPS 2574
1998 09 23.13875 22 44 34.01 +04 04 56.8 18.0   704 – Lincoln Laboratory ETS, New Mexico MPS 2574
1998 09 23.16211 22 44 33.24 +04 04 46.8 18.7   704 – Lincoln Laboratory ETS, New Mexico MPS 2574
1998 09 23.18598 22 44 32.31 +04 04 34.1 18.6   704 – Lincoln Laboratory ETS, New Mexico MPS 2574
1998 09 23.23324 22 44 30.61 +04 04 10.3 18.7   704 – Lincoln Laboratory ETS, New Mexico MPS 2574
2000 01 07.23430 06 08 23.65 +09 31 45.9 18.7   704 – Lincoln Laboratory ETS, New Mexico MPS 34030
2000 01 07.26379 06 08 22.19 +09 31 47.2 18.9   704 – Lincoln Laboratory ETS, New Mexico MPS 34030
2000 01 07.27848 06 08 21.45 +09 31 47.1 18.6   704 – Lincoln Laboratory ETS, New Mexico MPS 34030
2001 03 03.31680 11 22 15.81 -06 46 01.3 19.0   704 – Lincoln Laboratory ETS, New Mexico MPS 29621
2001 03 03.33141 11 22 15.07 -06 45 54.8 19.3   704 – Lincoln Laboratory ETS, New Mexico MPS 29621
2001 03 03.34545 11 22 14.57 -06 45 52.1 18.5   704 – Lincoln Laboratory ETS, New Mexico MPS 29621
2001 03 03.35866 11 22 14.04 -06 45 47.4 19.0   704 – Lincoln Laboratory ETS, New Mexico MPS 29621
2001 03 19.23526 11 10 48.06 -05 03 20.0 18.6 R 699 – Lowell Observatory-LONEOS MPS 29621
2001 03 19.27187 11 10 46.44 -05 03 04.2   699 – Lowell Observatory-LONEOS MPS 29621
2001 03 19.30851 11 10 44.87 -05 02 49.7   699 – Lowell Observatory-LONEOS MPS 29621
2001 03 19.34529 11 10 43.29 -05 02 33.6   699 – Lowell Observatory-LONEOS MPS 29621
2001 03 26.24858 11 06 07.90 -04 14 05.8 18.8   704 – Lincoln Laboratory ETS, New Mexico MPS 29621
2001 03 26.26124 11 06 07.35 -04 14 01.2 18.8   704 – Lincoln Laboratory ETS, New Mexico MPS 29621
2001 03 26.27440 11 06 06.80 -04 13 55.9 20.0   704 – Lincoln Laboratory ETS, New Mexico MPS 29621
2001 03 26.28680 11 06 06.39 -04 13 48.9 19.5   704 – Lincoln Laboratory ETS, New Mexico MPS 29621
2001 03 26.29946 11 06 05.83 -04 13 44.4 19.4   704 – Lincoln Laboratory ETS, New Mexico MPS 29621
2001 03 26.36137 11 06 03.66 -04 13 18.5 20.0   608 – Haleakala-AMOS MPS 29621
2001 03 26.37203 11 06 03.24 -04 13 14.4 20.1   608 – Haleakala-AMOS MPS 29621
2001 03 26.38371 11 06 02.81 -04 13 09.0 19.9   608 – Haleakala-AMOS MPS 29621
2002 05 09.34822 16 05 04.80 -14 17 20.9 18.6   704 – Lincoln Laboratory ETS, New Mexico MPS 58683
2002 05 09.36031 16 05 04.21 -14 17 17.8 18.9   704 – Lincoln Laboratory ETS, New Mexico MPS 58683
2002 05 09.37240 16 05 03.61 -14 17 12.4 18.6   704 – Lincoln Laboratory ETS, New Mexico MPS 58683
2002 05 09.38464 16 05 03.08 -14 17 09.1 19.1   704 – Lincoln Laboratory ETS, New Mexico MPS 58683
2002 05 09.39678 16 05 02.49 -14 17 06.0 19.3   704 – Lincoln Laboratory ETS, New Mexico MPS 58683
2002 05 23.38590 15 54 08.78 -13 06 00.3 18.5   644 – Palomar Mountain/NEAT MPS 58683
2002 05 23.39711 15 54 08.24 -13 05 56.8 18.7   644 – Palomar Mountain/NEAT MPS 58683
2002 05 23.41044 15 54 07.59 -13 05 52.9 19.0   644 – Palomar Mountain/NEAT MPS 58683
2002 06 09.24119 15 41 27.94 -11 53 19.8 18.9   704 – Lincoln Laboratory ETS, New Mexico MPS 56842
2002 06 09.25505 15 41 27.38 -11 53 16.8 19.2   704 – Lincoln Laboratory ETS, New Mexico MPS 56842
2002 06 09.26891 15 41 26.73 -11 53 13.1 19.4   704 – Lincoln Laboratory ETS, New Mexico MPS 56842
2002 06 09.29666 15 41 25.57 -11 53 06.9 19.4   704 – Lincoln Laboratory ETS, New Mexico MPS 56842
2002 06 10.21291 15 40 48.98 -11 49 51.7 19.1   644 – Palomar Mountain/NEAT MPS 58683
2002 06 10.23377 15 40 48.11 -11 49 47.1 18.8   644 – Palomar Mountain/NEAT MPS 58683
2002 06 10.24408 15 40 47.65 -11 49 46.0 18.9   704 – Lincoln Laboratory ETS, New Mexico MPS 56842
2002 06 10.25577 15 40 47.20 -11 49 42.5 18.9   644 – Palomar Mountain/NEAT MPS 58683
2002 06 10.25752 15 40 47.18 -11 49 43.2 18.9   704 – Lincoln Laboratory ETS, New Mexico MPS 56842
2002 06 10.27109 15 40 46.60 -11 49 40.2 19.6   704 – Lincoln Laboratory ETS, New Mexico MPS 56842
2002 06 10.28473 15 40 46.05 -11 49 37.0 19.0   704 – Lincoln Laboratory ETS, New Mexico MPS 56842
2003 07 23.44544 22 15 34.30 +04 25 21.5 18.4   644 – Palomar Mountain/NEAT MPS 82345
2003 07 23.45671 22 15 34.05 +04 25 21.6 18.9   644 – Palomar Mountain/NEAT MPS 82345
2003 07 23.46808 22 15 33.75 +04 25 21.7 18.3   644 – Palomar Mountain/NEAT MPS 82345
2003 07 30.33028 22 12 28.53 +04 21 49.9 18.9   704 – Lincoln Laboratory ETS, New Mexico MPS 82571
2003 07 30.34173 22 12 28.13 +04 21 48.1 19.2   704 – Lincoln Laboratory ETS, New Mexico MPS 82571
2003 07 30.35344 22 12 27.71 +04 21 47.7 19.2   704 – Lincoln Laboratory ETS, New Mexico MPS 82571
2003 07 30.36502 22 12 27.37 +04 21 48.4 19.8   704 – Lincoln Laboratory ETS, New Mexico MPS 82571
2003 07 30.37637 22 12 26.94 +04 21 46.7 19.6   704 – Lincoln Laboratory ETS, New Mexico MPS 82571
2003 08 26.31104 21 54 30.36 +02 36 50.8 18.3   704 – Lincoln Laboratory ETS, New Mexico MPS 83849
2003 08 26.32370 21 54 29.82 +02 36 45.8 18.7   704 – Lincoln Laboratory ETS, New Mexico MPS 83849
2003 08 26.33618 21 54 29.19 +02 36 41.5 18.7   704 – Lincoln Laboratory ETS, New Mexico MPS 83849
2003 08 28.27065 21 53 05.58 +02 24 26.0 17.5   704 – Lincoln Laboratory ETS, New Mexico MPS 83849
2003 08 28.28291 21 53 05.04 +02 24 21.7 17.9   704 – Lincoln Laboratory ETS, New Mexico MPS 83849
2003 08 28.29523 21 53 04.50 +02 24 16.8 17.9   704 – Lincoln Laboratory ETS, New Mexico MPS 83849
2003 08 28.30766 21 53 03.95 +02 24 12.2 17.8   704 – Lincoln Laboratory ETS, New Mexico MPS 83849
2003 09 02.24581 21 49 36.92 +01 51 03.0 17.4   704 – Lincoln Laboratory ETS, New Mexico MPS 84403
2003 09 02.25751 21 49 36.41 +01 50 57.7 18.5   704 – Lincoln Laboratory ETS, New Mexico MPS 84403
2003 09 02.26936 21 49 36.00 +01 50 50.8 18.9   704 – Lincoln Laboratory ETS, New Mexico MPS 84403
